WetterOnline ( https://www.wetteronline.de )

Wetter aktuell Versmold

Aktuelles Wetter: Belm (103m)

6-stündlich | Neueste Meldungen
Ortszeit Temperatur Wetter
So, 28.02. 1:00 4.2° C leicht bewölkt
Sa, 27.02. 19:00 6.9° C bedeckt
Sa, 27.02. 13:00 4.8° C bedeckt
Sa, 27.02. 7:00 2.3° C bedeckt
Sa, 27.02. 1:00 3.2° C bewölkt
Fr, 26.02. 19:00 6.3° C fast wolkenlos
Fr, 26.02. 13:00 9.7° C bewölkt
Fr, 26.02. 7:00 6.0° C bedeckt
Ortszeit Temperatur Wetter
So, 28.02. 5:00 0.2° C bedeckt
So, 28.02. 4:50 0.2° C bedeckt
So, 28.02. 4:40 0.4° C bedeckt
So, 28.02. 4:30 0.6° C Nebel
So, 28.02. 4:20 0.6° C Nebel
So, 28.02. 4:10 1.1° C Nebel
So, 28.02. 4:00 2.2° C fast wolkenlos
So, 28.02. 3:30 2.3° C wolkenlos
So, 28.02. 3:00 2.0° C wolkenlos
So, 28.02. 2:30 2.7° C wolkenlos
So, 28.02. 2:00 2.6° C wolkenlos
So, 28.02. 1:30 2.8° C wolkenlos
Ortszeit Relative Feuchte Sichtweite
So, 28.02. 1:00 91% 22 km
Sa, 27.02. 19:00 86% 35 km
Sa, 27.02. 13:00 91% 21 km
Sa, 27.02. 7:00 94% 13 km
Sa, 27.02. 1:00 92% 21 km
Fr, 26.02. 19:00 72% 45 km
Fr, 26.02. 13:00 57% 50 km
Fr, 26.02. 7:00 89% 29 km
Ortszeit Relative Feuchte Sichtweite
So, 28.02. 5:00 99% 2.8 km
So, 28.02. 4:50 99% -
So, 28.02. 4:40 98% -
So, 28.02. 4:30 98% 0.2 km
So, 28.02. 4:20 98% -
So, 28.02. 4:10 99% -
So, 28.02. 4:00 99% 2.4 km
So, 28.02. 3:30 99% 5.0 km
So, 28.02. 3:00 97% 10 km
So, 28.02. 2:30 96% 11 km
So, 28.02. 2:00 94% 10 km
So, 28.02. 1:30 94% 14 km
Ortszeit Niederschlagsmenge Niederschlagsart
So, 28.02. 1:00 0.0 l/m2 in 6 Std. -
Sa, 27.02. 19:00 0.0 l/m2 in 12 Std. -
Sa, 27.02. 13:00 0.0 l/m2 in 6 Std. -
Sa, 27.02. 7:00 0.0 l/m2 in 12 Std. -
Sa, 27.02. 1:00 0.0 l/m2 in 6 Std. -
Fr, 26.02. 19:00 0.0 l/m2 in 12 Std. -
Fr, 26.02. 13:00 0.0 l/m2 in 6 Std. -
Fr, 26.02. 7:00 4 l/m2 in 12 Std. Regen
Ortszeit Niederschlagsmenge Niederschlagsart
So, 28.02. 5:00 0.0 l/m2 in 1 Std. -
So, 28.02. 4:50 keine Meldung -
So, 28.02. 4:40 keine Meldung -
So, 28.02. 4:30 0.0 l/m2 in 1 Std. -
So, 28.02. 4:20 keine Meldung -
So, 28.02. 4:10 keine Meldung -
So, 28.02. 4:00 0.0 l/m2 in 1 Std. -
So, 28.02. 3:30 0.0 l/m2 in 1 Std. -
So, 28.02. 3:00 0.0 l/m2 in 1 Std. -
So, 28.02. 2:30 0.0 l/m2 in 1 Std. -
So, 28.02. 2:00 0.0 l/m2 in 1 Std. -
So, 28.02. 1:30 0.0 l/m2 in 1 Std. -
Ortszeit Stärke Spitze Richtung
km/h Bft. km/h Grad Sektor
So, 28.02. 1:00 4 1 18 50° NO
Sa, 27.02. 19:00 4 1 14 280° W
Sa, 27.02. 13:00 11 2 19 290° W
Sa, 27.02. 7:00 9 2 19 300° NW
Sa, 27.02. 1:00 6 1 19 320° NW
Fr, 26.02. 19:00 11 2 32 320° NW
Fr, 26.02. 13:00 18 3 32 310° NW
Fr, 26.02. 7:00 6 1 19 280° W
Ortszeit Stärke Spitze Richtung
km/h Bft. km/h Grad Sektor
So, 28.02. 5:00 0 0 4 - -
So, 28.02. 4:50 0 0 - 150° SO
So, 28.02. 4:40 2 1 - 130° SO
So, 28.02. 4:30 2 1 4 110° O
So, 28.02. 4:20 2 1 - 110° O
So, 28.02. 4:10 0 0 - 90° O
So, 28.02. 4:00 2 1 4 10° N
So, 28.02. 3:30 2 1 4 120° SO
So, 28.02. 3:00 0 0 4 - -
So, 28.02. 2:30 0 0 4 - -
So, 28.02. 2:00 2 1 6 140° SO
So, 28.02. 1:30 0 0 7 - -
Ortszeit Untergrenze Bedeckung Gattung
total tief tief mittel hoch
So, 28.02. 1:00 630 m 2/8 2/8 - - -
Sa, 27.02. 19:00 780 m 8/8 8/8 - - -
Sa, 27.02. 13:00 180 m 8/8 8/8 - - -
Sa, 27.02. 7:00 120 m 8/8 8/8 - - -
Sa, 27.02. 1:00 180 m 7/8 7/8 - - -
Fr, 26.02. 19:00 1500 m 1/8 1/8 - - -
Fr, 26.02. 13:00 1170 m 7/8 7/8 - - -
Fr, 26.02. 7:00 1050 m 8/8 8/8 - - -
Ortszeit Bedeckungsgrad in Achtel und Wolkenuntergrenze
So, 28.02. 5:00 8(<30m)
So, 28.02. 4:50 8(<30m)
So, 28.02. 4:40 8(<30m)
So, 28.02. 4:30 5(<30m)
So, 28.02. 4:20 5(<30m)
So, 28.02. 4:10 1(<30m)
So, 28.02. 4:00 2(<30m)
So, 28.02. 3:30 keine Wolken
So, 28.02. 3:00 keine Wolken
So, 28.02. 2:30 keine Wolken
So, 28.02. 2:00 keine Wolken
So, 28.02. 1:30 keine Wolken
Ortszeit Luftdruck NN (hPa) Tendenz (hPa in 3 Std.)
So, 28.02. 1:00 1040 - 0,3
Sa, 27.02. 19:00 1040 0,0
Sa, 27.02. 13:00 1041 + 0,5
Sa, 27.02. 7:00 1039 + 0,8
Sa, 27.02. 1:00 1038 + 1,4
Fr, 26.02. 19:00 1035 + 1,2
Fr, 26.02. 13:00 1033 + 0,4
Fr, 26.02. 7:00 1031 + 0,9
Ortszeit Luftdruck NN (hPa) Tendenz (hPa in 3 Std.)
So, 28.02. 5:00 1039 - 0,8
So, 28.02. 4:50 1039 keine Meldung
So, 28.02. 4:40 1039 keine Meldung
So, 28.02. 4:30 1039 - 0,9
So, 28.02. 4:20 1039 keine Meldung
So, 28.02. 4:10 1039 keine Meldung
So, 28.02. 4:00 1040 - 0,6
So, 28.02. 3:30 1040 - 0,7
So, 28.02. 3:00 1040 - 0,7
So, 28.02. 2:30 1040 - 0,6
So, 28.02. 2:00 1040 - 0,4
So, 28.02. 1:30 1040 - 0,3
Ortszeit Schneehöhe (cm)
So, 28.02. 1:00 0
Sa, 27.02. 19:00 0
Sa, 27.02. 13:00 0
Sa, 27.02. 7:00 0
Sa, 27.02. 1:00 0
Fr, 26.02. 19:00 0
Fr, 26.02. 13:00 0
Fr, 26.02. 7:00 0
Ortszeit Schneehöhe (cm)
So, 28.02. 5:00 0
So, 28.02. 4:50 0
So, 28.02. 4:40 0
So, 28.02. 4:30 0
So, 28.02. 4:20 0
So, 28.02. 4:10 0
So, 28.02. 4:00 0
So, 28.02. 3:30 0
So, 28.02. 3:00 0
So, 28.02. 2:30 0
So, 28.02. 2:00 0
So, 28.02. 1:30 0
Link zu dieser Seite / Seite empfehlen

Das Wetter in ...